| time (UTC) | temp F | wind direction | speed MPH | gust MPH | rain 1hr in | rain 24hr in | rain mn in | humidity % | barometer mb |
| 20260507173103 | 57 | 109 | 0.0 | 0.0 | 0.00 | 0.00 | 0.00 | 69 | 1008.9 |
| 20260507171553 | 57 | 120 | 0.0 | 6.0 | 0.00 | 0.00 | 0.00 | 69 | 1009.0 |
| 20260507170056 | 57 | 122 | 2.0 | 5.0 | 0.00 | 0.00 | 0.00 | 69 | 1009.1 |
| 20260507164622 | 57 | 120 | 1.0 | 7.0 | 0.00 | 0.00 | 0.00 | 70 | 1009.1 |
| 20260507163054 | 57 | 171 | 2.0 | 6.0 | 0.00 | 0.00 | 0.00 | 71 | 1009.0 |
| 20260507161557 | 57 | 167 | 2.0 | 10.0 | 0.00 | 0.00 | 0.00 | 70 | 1009.2 |
| 20260507160051 | 58 | 148 | 1.0 | 11.0 | 0.00 | 0.00 | 0.00 | 69 | 1009.1 |
| 20260507154556 | 59 | 134 | 0.0 | 2.0 | 0.00 | 0.00 | 0.00 | 69 | 1009.1 |
| 20260507153048 | 58 | 105 | 0.0 | 6.0 | 0.00 | 0.00 | 0.00 | 69 | 1009.1 |
| 20260507151549 | 58 | 54 | 2.0 | 7.0 | 0.00 | 0.00 | 0.00 | 68 | 1009.2 |
| 20260507150049 | 58 | 52 | 1.0 | 7.0 | 0.00 | 0.00 | 0.00 | 68 | 1009.2 |
| 20260507144546 | 58 | 72 | 2.0 | 7.0 | 0.00 | 0.00 | 0.00 | 67 | 1009.2 |
| 20260507143047 | 57 | 138 | 3.0 | 6.0 | 0.00 | 0.00 | 0.00 | 68 | 1009.3 |
| 20260507141544 | 57 | 104 | 2.0 | 6.0 | 0.00 | 0.00 | 0.00 | 69 | 1009.6 |
| 20260507140045 | 57 | 105 | 3.0 | 8.0 | 0.00 | 0.00 | 0.00 | 69 | 1009.6 |
| 20260507134541 | 58 | 124 | 1.0 | 7.0 | 0.00 | 0.00 | 0.00 | 68 | 1009.6 |
| 20260507133047 | 58 | 139 | 3.0 | 7.0 | 0.00 | 0.00 | 0.00 | 66 | 1009.6 |
| 20260507131541 | 59 | 128 | 1.0 | 8.0 | 0.00 | 0.00 | 0.00 | 66 | 1009.7 |
| 20260507130042 | 58 | 131 | 2.0 | 6.0 | 0.00 | 0.00 | 0.00 | 66 | 1009.8 |
| 20260507124540 | 58 | 94 | 2.0 | 5.0 | 0.00 | 0.00 | 0.00 | 66 | 1009.7 |
| 20260507123041 | 57 | 127 | 1.0 | 8.0 | 0.00 | 0.00 | 0.00 | 66 | 1009.8 |
| 20260507121536 | 58 | 123 | 1.0 | 7.0 | 0.00 | 0.00 | 0.00 | 65 | 1009.8 |
| 20260507120035 | 59 | 102 | 2.0 | 11.0 | 0.00 | 0.00 | 0.00 | 64 | 1009.8 |
| 20260507114554 | 60 | 129 | 2.0 | 8.0 | 0.00 | 0.00 | 0.00 | 62 | 1009.9 |
| 20260507113057 | 60 | 72 | 3.0 | 10.0 | 0.00 | 0.00 | 0.00 | 60 | 1009.7 |
| 20260507111537 | 60 | 105 | 4.0 | 10.0 | 0.00 | 0.00 | 0.00 | 57 | 1009.8 |
| 20260507110028 | 59 | 77 | 2.0 | 8.0 | 0.00 | 0.00 | 0.00 | 57 | 1010.0 |
| 20260507104537 | 59 | 143 | 2.0 | 7.0 | 0.00 | 0.00 | 0.00 | 59 | 1010.1 |
| 20260507103025 | 58 | 100 | 4.0 | 9.0 | 0.00 | 0.00 | 0.00 | 61 | 1010.2 |
| 20260507101520 | 57 | 68 | 2.0 | 5.0 | 0.00 | 0.00 | 0.00 | 68 | 1010.3 |
| 20260507100016 | 56 | 95 | 0.0 | 0.0 | 0.00 | 0.00 | 0.00 | 71 | 1010.4 |
| 20260507094511 | 54 | 82 | 0.0 | 0.0 | 0.00 | 0.00 | 0.00 | 75 | 1010.3 |
| 20260507093007 | 52 | 114 | 0.0 | 0.0 | 0.00 | 0.00 | 0.00 | 76 | 1010.2 |
| 20260507091504 | 51 | 89 | 0.0 | 3.0 | 0.00 | 0.00 | 0.00 | 78 | 1010.5 |
| 20260507090100 | 50 | 117 | 0.0 | 1.0 | 0.00 | 0.00 | 0.00 | 78 | 1010.6 |
| 20260507084609 | 49 | 115 | 0.0 | 1.0 | 0.00 | 0.00 | 0.00 | 80 | 1010.5 |
| 20260507083055 | 48 | 77 | 0.0 | 1.0 | 0.00 | 0.00 | 0.00 | 82 | 1010.7 |
| 20260507081559 | 48 | 77 | 0.0 | 1.0 | 0.00 | 0.00 | 0.00 | 82 | 1010.7 |
| 20260507080051 | 47 | 107 | 0.0 | 1.0 | 0.00 | 0.00 | 0.00 | 84 | 1010.6 |
| 20260507074556 | 47 | 125 | 0.0 | 0.0 | 0.00 | 0.00 | 0.00 | 85 | 1010.5 |
| 20260507073053 | 46 | 124 | 0.0 | 0.0 | 0.00 | 0.00 | 0.00 | 85 | 1010.6 |
| 20260507071548 | 46 | 129 | 0.0 | 1.0 | 0.00 | 0.00 | 0.00 | 85 | 1010.5 |
| 20260507070048 | 46 | 134 | 0.0 | 0.0 | 0.00 | 0.00 | 0.00 | 86 | 1010.3 |
| 20260507064550 | 45 | 133 | 0.0 | 0.0 | 0.00 | 0.00 | 0.00 | 86 | 1010.2 |
| 20260507063046 | 45 | 133 | 0.0 | 0.0 | 0.00 | 0.00 | 0.00 | 87 | 1010.1 |
| 20260507061545 | 45 | 132 | 0.0 | 0.0 | 0.00 | 0.00 | 0.00 | 86 | 1010.2 |
| 20260507060045 | 45 | 148 | 0.0 | 0.0 | 0.00 | 0.00 | 0.00 | 86 | 1010.2 |
| 20260507054543 | 45 | 167 | 0.0 | 0.0 | 0.00 | 0.00 | 0.00 | 86 | 1010.1 |
| 20260507053043 | 45 | 167 | 0.0 | 0.0 | 0.00 | 0.00 | 0.00 | 86 | 1010.1 |
| 20260507051543 | 45 | 167 | 0.0 | 0.0 | 0.00 | 0.00 | 0.00 | 86 | 1010.0 |
| 20260507050043 | 45 | 167 | 0.0 | 0.0 | 0.00 | 0.00 | 0.00 | 86 | 1010.1 |
| 20260507044548 | 45 | 167 | 0.0 | 0.0 | 0.00 | 0.00 | 0.00 | 85 | 1010.0 |
| 20260507043055 | 45 | 167 | 0.0 | 0.0 | 0.00 | 0.00 | 0.00 | 85 | 1009.9 |
| 20260507041540 | 45 | 167 | 0.0 | 0.0 | 0.00 | 0.00 | 0.00 | 85 | 1009.9 |
| 20260507040041 | 45 | 167 | 0.0 | 0.0 | 0.00 | 0.00 | 0.00 | 85 | 1009.9 |
| 20260507034538 | 45 | 167 | 0.0 | 0.0 | 0.00 | 0.00 | 0.00 | 85 | 1009.9 |
| 20260507033038 | 45 | 167 | 0.0 | 0.0 | 0.00 | 0.00 | 0.00 | 84 | 1010.0 |
| 20260507031542 | 45 | 167 | 0.0 | 0.0 | 0.00 | 0.00 | 0.00 | 84 | 1010.0 |
| 20260507030036 | 45 | 169 | 0.0 | 0.0 | 0.00 | 0.00 | 0.00 | 84 | 1010.1 |
| 20260507024534 | 45 | 169 | 0.0 | 0.0 | 0.00 | 0.00 | 0.00 | 84 | 1010.0 |
| 20260507023034 | 45 | 141 | 0.0 | 0.0 | 0.00 | 0.00 | 0.00 | 84 | 1010.1 |
| 20260507021534 | 46 | 89 | 0.0 | 0.0 | 0.00 | 0.00 | 0.00 | 83 | 1010.0 |
| 20260507020045 | 46 | 56 | 0.0 | 0.0 | 0.00 | 0.00 | 0.00 | 83 | 1010.0 |
| 20260507014533 | 46 | 56 | 0.0 | 0.0 | 0.00 | 0.00 | 0.00 | 82 | 1009.9 |
| 20260507013028 | 46 | 56 | 0.0 | 0.0 | 0.00 | 0.00 | 0.00 | 82 | 1009.9 |
| 20260507011539 | 47 | 56 | 0.0 | 0.0 | 0.00 | 0.00 | 0.00 | 81 | 1010.0 |
| 20260507010029 | 47 | 56 | 0.0 | 0.0 | 0.00 | 0.00 | 0.00 | 81 | 1010.1 |